Regional Weather Roundup
Issued by NWS

Home | Current Version | Previous Version | Graphics & Text | Print | Product List | Glossary On
Versions: 1 2 3 4 5 6 7 8 9 10 11 12 13 14 15 16 17 18 19 20 21 22 23 24 25 26 27 28 29 30 31 32 33 34 35 36 37 38 39 40 41 42 43 44 45 46 47 48 49 50
000
ASUS45 KABQ 282110
RWRNM
NEW MEXICO REGIONAL WEATHER ROUNDUP
NATIONAL WEATHER SERVICE ALBUQUERQUE NM
300 PM MDT WED JUN 28 2017

NOTE: "FAIR" MEANS FEW OR NO CLOUDS BELOW 12,000 FEET AGL WITH NO
       SIGNIFICANT WEATHER OR OBSTRUCTIONS TO VISION.

      THIS PRODUCT IS RELEASED AS TWO VERSIONS.  ONE VERSION NEAR
      THE TOP OF THE HOUR CONTAINING PRELIMINARY DATA FROM ALBUQUERQUE
      AND OTHER STATIONS.  A FINAL VERSION WITH ADDITIONAL DATA IS
      ISSUED ABOUT 10 MINUTES AFTER THE HOUR.

NMZ501-503-504-510>518-282200-
NORTHWEST PLATEAU/NORTHCENTRAL MOUNTAINS

CITY           SKY/WX    TMP DP  RH WIND       PRES   REMARKS
FARMINGTON     FAIR      91   6   4 W10G28    29.96F
LOS ALAMOS     FAIR      86  14   7 W17G25    30.11F
SANTA FE       FAIR      90  16   6 W16       30.03F
TAOS           FAIR      86  25  10 W24G30    30.09F
ANGEL FIRE     FAIR      74  25  16 S15G21    30.19F

$$
NMZ402-403-502-505>509-282200-
WESTCENTRAL MOUNTAINS/SOUTHWEST MOUNTAINS

CITY           SKY/WX    TMP DP  RH WIND       PRES   REMARKS
GALLUP         FAIR      90  14   6 W21G31    30.09F
GRANTS         FAIR      89   7   4 W18G32    30.11F
SILVER CITY    FAIR      91  24   9 W20G26    30.07F

$$
NMZ407-409-411-412-282200-
SOUTHERN DESERTS

CITY           SKY/WX    TMP DP  RH WIND       PRES   REMARKS
DEMING         FAIR      98  23   7 W20G25    29.97F
LAS CRUCES     FAIR      98  24   7 W16G28    29.98F
HOLLOMAN AFB   FAIR     100  18   5 SW7       29.94F
ALAMOGORDO     FAIR      97  19   6 W8        29.94F
T OR C         FAIR      96  17   5 S8G21     29.96F

$$
NMZ519>523-282200-
CENTRAL VALLEYS/CENTRAL HIGHLANDS

CITY           SKY/WX    TMP DP  RH WIND       PRES   REMARKS
ALBUQUERQUE    FAIR      92   8   4 VRB7G22   29.98F
DOUBLE EAGLE   SUNNY     93  19   7 SW16      30.02F
MORIARTY ARPT  FAIR      91  21   7 W14G21    30.06F
CLINES CORNERS FAIR      86  16   7 W25G32    30.12S
BELEN          FAIR      96  13   5 SW17G24   29.97F
SOCORRO        FAIR      94  24   8 SE7       29.96F

$$
NMZ524>526-539-540-282200-
SOUTHCENTRAL MOUNTAINS

CITY           SKY/WX    TMP DP  RH WIND       PRES   REMARKS
RUIDOSO        FAIR      84  25  11 W15G25    30.15S

$$
NMZ527>531-282200-
NORTHEAST HIGHLANDS/NORTHEAST PLAINS

CITY           SKY/WX    TMP DP  RH WIND       PRES   REMARKS
RATON          FAIR      93  19   7 SW23G30   29.95F
CLAYTON        FAIR      91  47  21 SE10      29.90F

$$
NMZ532>537-282200-
EASTCENTRAL PLAINS

CITY           SKY/WX    TMP DP  RH WIND       PRES   REMARKS
SANTA ROSA     FAIR      98  20   6 SW10G23   29.88F
TUCUMCARI      FAIR     104  26   6 W17G25    29.79F HX  96
CANNON AFB     FAIR      97  34  11 W18G26    29.88F
CLOVIS AIRPORT FAIR      98  43  15 SW10G21   29.89F

$$
NMZ028-029-538-282200-
SOUTHEAST PLAINS

CITY           SKY/WX    TMP DP  RH WIND       PRES   REMARKS
ROSWELL        FAIR     101  47  16 VRB6G16   29.83F HX  97
ARTESIA        FAIR     100  48  17 SE17      29.82F HX  97
CARLSBAD       FAIR     104  37  10 W12G20    29.81F HX  98
HOBBS          SUNNY     97  46  17 SW7       29.88F


$$




USA.gov is the U.S. government's official web portal to all federal, state and local government web resources and services.